Date String (YYYY-MM-DD hh:mm:ss) UTC,Instrument flags,absolute air pressure of the measurement (hPa),sample flow rate (lpm),inlet stack bypass flow (lpm),air temperature of the measurement (°C),ambient temperature measured by the external sensor (°C),aerosol sample conditioner tube jacket temperature (°C),OPC LED temperature (°C),internal box temperature (°C),relative humidity of the measurement (%),span deviation,mass concentration of particles derived from Lorenz-Mie calculation of OPC scattering (μg/m³),mass concentration of particles derived from Lorenz-Mie calculation of OPC scattering (μg/m³),mass concentration of particles derived from Lorenz-Mie calculation of OPC scattering (μg/m³)
DateTimeUTC,F1_M11,P_M11,Q1_M11,Q2_M11,T1_M11,T2_M11,T3_M11,T4_M11,T5_M11,U1_M11,ZSPAN_M11,X2_M11,X0_M11,X1_M11
2023-11-22 02:00:00,SystemResetWarning,0838.1,5.00,000.00,024.7,023.6,000.0,033.1,025.8,9.8,0000.0,0001.53,0003.17,0001.13
2023-11-22 02:01:00,SystemResetWarning,0838.2,5.01,000.00,024.6,023.6,000.0,033.1,025.8,9.8,0000.0,0001.49,0002.97,0001.13
2023-11-22 02:02:00,SystemResetWarning,0838.2,5.00,000.00,024.6,023.6,000.0,033.1,025.7,9.9,0000.0,0001.43,0003.80,0001.11
2023-11-22 02:03:00,SystemResetWarning,0838.2,5.01,000.00,024.6,023.6,000.0,033.1,025.7,9.9,0000.0,0001.42,0003.80,0001.10
2023-11-22 02:04:00,SystemResetWarning,0838.2,5.00,000.00,024.6,023.5,000.0,033.1,025.7,9.9,0000.0,0001.39,0003.74,0001.09
2023-11-22 02:05:00,SystemResetWarning,0838.2,5.00,000.00,024.6,023.5,000.0,033.1,025.7,9.9,0000.0,0001.37,0003.60,0001.09
2023-11-22 02:06:00,SystemResetWarning,0838.2,4.99,000.00,024.6,023.5,000.0,033.0,025.8,9.9,0000.0,0001.38,0003.67,0001.09
2023-11-22 02:07:00,SystemResetWarning,0838.2,5.00,000.00,024.5,023.5,000.0,033.0,025.6,10.0,0000.0,0001.44,0004.04,0001.10
2023-11-22 02:08:00,SystemResetWarning,0838.2,5.00,000.00,024.5,023.5,000.0,033.0,025.7,10.0,0000.0,0001.46,0004.17,0001.10
2023-11-22 02:09:00,SystemResetWarning,0838.2,4.99,000.00,024.5,023.4,000.0,033.0,025.7,9.9,0000.0,0001.47,0004.20,0001.09
2023-11-22 02:10:00,SystemResetWarning,0838.2,5.00,000.00,024.5,023.4,000.0,033.0,025.7,9.8,0000.0,0001.47,0004.19,0001.10
2023-11-22 02:11:00,SystemResetWarning,0838.2,5.01,000.00,024.5,023.4,000.0,033.0,025.6,9.9,0000.0,0001.48,0004.19,0001.10
2023-11-22 02:12:00,SystemResetWarning,0838.2,5.01,000.00,024.5,023.4,000.0,033.0,025.6,9.9,0000.0,0001.44,0004.05,0001.09
2023-11-22 02:13:00,SystemResetWarning,0838.2,4.99,000.00,024.5,023.4,000.0,033.0,025.6,9.9,0000.0,0001.45,0003.00,0001.09
2023-11-22 02:14:00,SystemResetWarning,0838.1,4.99,000.00,024.5,023.3,000.0,032.9,025.6,9.8,0000.0,0001.43,0002.72,0001.10
2023-11-22 02:15:00,SystemResetWarning,0838.1,4.99,000.00,024.4,023.3,000.0,032.9,025.5,9.9,0000.0,0001.45,0002.69,0001.10
2023-11-22 02:16:00,SystemResetWarning,0838.0,5.00,000.00,024.4,023.3,000.0,032.9,025.6,9.9,0000.0,0001.47,0002.75,0001.10
2023-11-22 02:17:00,SystemResetWarning,0837.9,5.00,000.00,024.4,023.3,000.0,032.9,025.5,9.9,0000.0,0001.48,0002.72,0001.09
2023-11-22 02:18:00,SystemResetWarning,0838.0,5.01,000.00,024.4,023.3,000.0,032.9,025.5,10.0,0000.0,0001.41,0002.37,0001.07
2023-11-22 02:19:00,SystemResetWarning,0838.0,5.00,000.00,024.4,023.3,000.0,032.9,025.5,10.0,0000.0,0001.37,0002.07,0001.08
2023-11-22 02:20:00,SystemResetWarning,0838.0,5.00,000.00,024.4,023.3,000.0,032.9,025.5,10.0,0000.0,0001.35,0002.01,0001.08
2023-11-22 02:21:00,SystemResetWarning,0838.0,4.99,000.00,024.4,023.3,000.0,032.9,025.5,10.0,0000.0,0001.38,0002.16,0001.08
2023-11-22 02:22:00,SystemResetWarning,0838.0,4.99,000.00,024.3,023.3,000.0,032.8,025.5,10.0,0000.0,0001.41,0002.27,0001.08
2023-11-22 02:23:00,SystemResetWarning,0837.9,4.99,000.00,024.3,023.3,000.0,032.8,025.5,10.0,0000.0,0001.43,0002.86,0001.08
2023-11-22 02:24:00,SystemResetWarning,0837.9,5.00,000.00,024.3,023.3,000.0,032.8,025.5,10.0,0000.0,0001.44,0002.85,0001.08
2023-11-22 02:25:00,SystemResetWarning,0837.9,4.99,000.00,024.3,023.3,000.0,032.8,025.5,10.0,0000.0,0001.46,0002.88,0001.08
2023-11-22 02:26:00,SystemResetWarning,0837.9,5.01,000.00,024.3,023.3,000.0,032.8,025.5,10.0,0000.0,0001.45,0002.91,0001.07
2023-11-22 02:27:00,SystemResetWarning,0837.9,5.01,000.00,024.3,023.3,000.0,032.8,025.5,10.0,0000.0,0001.48,0003.03,0001.06
2023-11-22 02:28:00,SystemResetWarning,0837.8,5.00,000.00,024.3,023.2,000.0,032.8,025.5,10.0,0000.0,0001.48,0003.04,0001.07
2023-11-22 02:29:00,SystemResetWarning,0837.8,5.00,000.00,024.3,023.3,000.0,032.8,025.5,10.0,0000.0,0001.48,0003.02,0001.08
2023-11-22 02:30:00,SystemResetWarning,0837.8,5.01,000.00,024.3,023.3,000.0,032.7,025.5,10.0,0000.0,0001.47,0003.01,0001.08
2023-11-22 02:31:00,SystemResetWarning,0837.8,5.00,000.00,024.2,023.3,000.0,032.7,025.5,10.0,0000.0,0001.51,0003.16,0001.06
2023-11-22 02:32:00,SystemResetWarning,0837.8,5.00,000.00,024.2,023.2,000.0,032.7,025.5,10.1,0000.0,0001.50,0003.19,0001.04
2023-11-22 02:33:00,SystemResetWarning,0837.8,5.00,000.00,024.2,023.2,000.0,032.7,025.5,10.1,0000.0,0001.43,0003.23,0001.02
2023-11-22 02:34:00,SystemResetWarning,0837.8,5.01,000.00,024.2,023.2,000.0,032.7,025.4,10.1,0000.0,0001.39,0002.69,0001.02
2023-11-22 02:35:00,SystemResetWarning,0837.8,5.00,000.00,024.2,023.2,000.0,032.7,025.4,10.1,0000.0,0001.39,0002.66,0001.02
2023-11-22 02:36:00,SystemResetWarning,0837.8,5.00,000.00,024.2,023.2,000.0,032.7,025.5,10.1,0000.0,0001.38,0002.66,0001.02
2023-11-22 02:37:00,SystemResetWarning,0837.8,5.00,000.00,024.2,023.2,000.0,032.7,025.4,10.1,0000.0,0001.41,0002.72,0001.03
2023-11-22 02:38:00,SystemResetWarning,0837.8,5.00,000.00,024.2,023.2,000.0,032.7,025.4,10.2,0000.0,0001.39,0002.63,0001.03
2023-11-22 02:39:00,SystemResetWarning,0837.8,5.00,000.00,024.2,023.1,000.0,032.6,025.4,10.3,0000.0,0001.38,0002.58,0001.03
2023-11-22 02:40:00,SystemResetWarning,0837.8,5.00,000.00,024.2,023.1,000.0,032.6,025.4,10.3,0000.0,0001.36,0002.53,0001.02
2023-11-22 02:41:00,SystemResetWarning,0837.8,5.01,000.00,024.2,023.1,000.0,032.6,025.4,10.3,0000.0,0001.37,0002.61,0001.02
2023-11-22 02:42:00,SystemResetWarning,0837.7,5.01,000.00,024.1,023.1,000.0,032.6,025.3,10.3,0000.0,0001.36,0003.18,0001.03
2023-11-22 02:43:00,SystemResetWarning,0837.7,5.00,000.00,024.1,023.1,000.0,032.6,025.3,10.3,0000.0,0001.36,0003.18,0001.04
2023-11-22 02:44:00,SystemResetWarning,0837.7,4.99,000.00,024.1,023.0,000.0,032.6,025.3,10.3,0000.0,0001.39,0003.10,0001.04
2023-11-22 02:45:00,SystemResetWarning,0837.7,5.00,000.00,024.1,023.1,000.0,032.6,025.3,10.3,0000.0,0001.39,0002.97,0001.04
2023-11-22 02:46:00,SystemResetWarning,0837.7,5.00,000.00,024.1,023.1,000.0,032.6,025.3,10.3,0000.0,0001.44,0003.16,0001.04
2023-11-22 02:47:00,SystemResetWarning,0837.7,5.00,000.00,024.1,023.1,000.0,032.6,025.2,10.3,0000.0,0001.45,0003.18,0001.04
2023-11-22 02:48:00,SystemResetWarning,0837.7,5.00,000.00,024.1,023.1,000.0,032.6,025.2,10.3,0000.0,0001.46,0003.20,0001.04
2023-11-22 02:49:00,SystemResetWarning,0837.7,5.00,000.00,024.1,023.0,000.0,032.5,025.2,10.3,0000.0,0001.41,0003.05,0001.02
2023-11-22 02:50:00,SystemResetWarning,0837.7,5.00,000.00,024.1,023.0,000.0,032.5,025.2,10.3,0000.0,0001.38,0002.98,0001.01
2023-11-22 02:51:00,SystemResetWarning,0837.7,5.00,000.00,024.0,023.0,000.0,032.5,025.2,10.3,0000.0,0001.37,0002.98,0000.98
2023-11-22 02:52:00,SystemResetWarning,0837.7,5.00,000.00,024.0,023.0,000.0,032.5,025.3,10.3,0000.0,0001.36,0002.96,0000.96
2023-11-22 02:53:00,SystemResetWarning,0837.7,5.00,000.00,024.0,023.0,000.0,032.5,025.3,10.3,0000.0,0001.29,0002.51,0000.95
2023-11-22 02:54:00,SystemResetWarning,0837.7,5.00,000.00,024.0,023.0,000.0,032.5,025.2,10.3,0000.0,0001.23,0001.90,0000.92
2023-11-22 02:55:00,SystemResetWarning,0837.6,5.00,000.00,024.0,023.0,000.0,032.5,025.2,10.3,0000.0,0001.18,0001.77,0000.90
2023-11-22 02:56:00,SystemResetWarning,0837.6,5.00,000.00,024.0,023.0,000.0,032.5,025.2,10.3,0000.0,0001.14,0001.67,0000.90
2023-11-22 02:57:00,SystemResetWarning,0837.6,5.00,000.00,024.0,023.0,000.0,032.5,025.2,10.4,0000.0,0001.10,0001.53,0000.90
2023-11-22 02:58:00,SystemResetWarning,0837.7,5.00,000.00,024.0,023.0,000.0,032.4,025.1,10.4,0000.0,0001.10,0001.56,0000.89
2023-11-22 02:59:00,SystemResetWarning,0837.6,5.00,000.00,024.0,023.0,000.0,032.4,025.1,10.4,0000.0,0001.08,0001.51,0000.89
